Location: Newark
(44.3248°N, 23.7839°E)
Time: 00:00:53
(UTC+00:00)

PCSat - Pass Details

Date: 20 April 2024
Orbit: 783 x 792 km, 67.1° (Epoch: 21 May)

Event Time Altitude Azimuth Distance (km) Brightness Sun altitude
Rises 20:13:34 0° 273° (W) 3,281 13.3 -26.5°
Reaches altitude 10° 20:17:25 10° 301° (WNW) 2,358 12.8 -26.9°
Maximum altitude 20:19:55 13° 328° (NNW) 2,147 12.7 -27.1°
Drops below altitude 10° 20:22:25 10° 356° (N) 2,364 12.8 -27.4°
Sets 20:26:18 0° 24° (NNE) 3,299 13.2 -27.8°
